Regional Weather Roundup
Issued by NWS State College, PA

Home | Current Version | Previous Version | Text Only | Print | Product List | Glossary On
Versions: 1 2 3 4 5 6 7 8 9 10 11 12 13 14 15 16 17 18 19 20 21 22 23 24 25 26 27 28 29 30 31 32 33 34 35 36 37 38 39 40 41 42 43 44 45 46 47 48 49 50
000
ASUS41 KCTP 201910
RWRCTP
REGIONAL WEATHER ROUNDUP
NATIONAL WEATHER SERVICE STATE COLLEGE PA
200 PM EST SAT JAN 20 2018

Note: "fair" indicates few or no clouds below 12,000 feet with no
significant weather and/or obstructions to visibility.

* = STATION THAT DOES NOT REPORT PRECIPITATION /E.G. RAIN...SNOW...ETC/
    THUNDER OR FOG.

PAZ002>004-007>009-013>016-020>023-029>032-202000-
WESTERN PENNSYLVANIA

CITY           SKY/WX    TMP DP  RH WIND       PRES   REMARKS
ERIE           FAIR      41  27  57 W10       29.95S
MEADVILLE      FAIR      39  26  59 SW13      29.95F
FRANKLIN*      FAIR      40  25  55 W14G20    29.96F
NEW CASTLE     FAIR      43  26  51 SW10G22   29.99F
BEAVER COUNTY  NOT AVBL
BUTLER*        FAIR      43  26  51 SW12      29.98F
PITTSBURGH INT PTSUNNY   45  27  49 SW14      29.99F
PITTSBURGH     FAIR      43  26  51 W17       29.98F
INDIANA*       SUNNY     45  30  57 W16G25    30.00S
LATROBE        MOSUNNY   46  30  53 SW17G29   30.00F
WASHINGTON CO* NOT AVBL
$$

PAZ004>006-010>012-017>019-024>028-033>037-041-042-045-046-049>053-202000-
CENTRAL PENNSYLVANIA

CITY           SKY/WX    TMP DP  RH WIND       PRES   REMARKS
BRADFORD       FAIR      41  26  55 W8        29.89S
DUBOIS         FAIR      39  25  57 SW12      29.92F
CLEARFIELD     FAIR      44  26  49 SW14      29.93F
JOHNSTOWN      FAIR      42  28  57 W17G23    29.93S
ALTOONA        FAIR      48  31  51 W10       29.94F
STATE COLLEGE  SUNNY     45  30  57 W10       29.93S
WILLIAMSPORT   FAIR      46  27  47 W12       29.90S
SELINSGROVE    FAIR      45  26  47 SW5       29.93S
FT INDIANTOWN  FAIR      48  29  49 SW3       29.92S
CAPITAL CITY   FAIR      50  32  50 W7        29.94R
HARRISBURG     PTSUNNY   48  31  51 W9        29.93S
YORK           FAIR      51  32  48 W10       29.94S
$$

PAZ038>040-043-044-047-048-054-055-060>062-067>071-202000-
EASTERN PENNSYLVANIA

CITY           SKY/WX    TMP DP  RH WIND       PRES   REMARKS
SCRANTON       FAIR      42  26  53 SW9       29.87S
MOUNT POCONO   FAIR      37  25  61 W23G30    29.83R
ALLENTOWN      FAIR      48  28  46 W10       29.90S
QUAKERTOWN*    FAIR      48  28  46 MISG      29.91S
READING        FAIR      49  32  52 W9        29.92R
LANCASTER      FAIR      50  34  54 W10       29.93R
COATESVILLE    FAIR      52  32  46 W12       29.94R
POTTSTOWN      FAIR      51  28  41 W15G24    29.93R
BLUE BELL      FAIR      52  32  46 W12G17    29.92R
DOYLESTOWN     FAIR      52  28  39 W17G25    29.89S
WILLOW GROVE   NOT AVBL
NORTH PHILA    FAIR      58  30  34 W14       29.92F
PHILADELPHIA   PTSUNNY   54  29  38 SW13      29.92F
$$




USA.gov is the U.S. government's official web portal to all federal, state and local government web resources and services.